sat.trackr.live / text

‹ back to catalog

ONEWEB-0490

NORAD 54113 · 2022-138A

PAYLOAD ACTIVE UNKNOWN

§ Identity

Operator
Country
UK
Launch date
2022-10-22
Launch site
SRILR
Launch vehicle
Mass (kg)
RCS (m²)

Purposes: comms

External: N2YO · Heavens-Above · Gunter

§ Orbital elements

Epoch: 2026-09-19T08:59:46.471488Z

Period
109.11 min
Inclination
87.9109°
Eccentricity
0.0001916
Mean motion
13.19723749 rev/d
Perigee alt
1,184.3 km
Apogee alt
1,187.2 km
Semi-major
7,563.9 km
B*
-1.7599e-5
RAAN
286.2037°
Arg perigee
87.0983°
Mean anomaly
273.0369°
Rev number
18,925

§ Raw data

ONEWEB-04901 54113U 22138A   26262.37484342  .00000006  00000+0 -17599-4 0  99942 54113  87.9109 286.2037 0001916  87.0983 273.0369 13.19723749189251

JSON: /api/v1/satellites/54113 · /tle

For live sub-satellite position, see the globe view (requires WebGL).

§ Visibility from observer

Set your observer location to see the next 7 days of passes ≥ 10°. The values pass through the URL so the page stays shareable.

No JS? Fill the form by hand. The geolocation button needs JavaScript.